Laconia, NH

1:33 PM EDT on August 19, 2017 (GMT -0400)
Laconia Municipal

Weather History for KLCI - January, 2014

Change the Weather History Date:

Thursday, January 30, 2014

  Actual Average Record
Temperature  
Mean Temperature 17 °F -  
Max Temperature 26 °F 33 °F 51 °F (2013)
Min Temperature 8 °F 9 °F -9 °F (1988)
Degree Days  
Heating Degree Days 48    
Moisture  
Dew Point 1 °F    
Average Humidity 58    
Maximum Humidity 79    
Minimum Humidity 37    
Precipitation  
Precipitation 0.00 in - - ()
Sea Level Pressure  
Sea Level Pressure 30.24 in    
Wind  
Wind Speed 7 mph (SW)    
Max Wind Speed 15 mph    
Max Gust Speed 16 mph    
Visibility 10 miles    
Events      
Averages and records for this station are not official NWS values.
T = Trace of Precipitation, MM = Missing Value Source: NWS Daily Summary

Daily Weather History Graph

Daily Weather History Graph

Search for Another Location

Airport or City:

Trip Planner

Search our weather history database for the weather conditions in past years. The results will help you decide how hot, cold, wet, or windy it might be!

Date:

Astronomy

Jan. 30, 2014 Rise Set
Actual Time 7:04 AM EST 4:54 PM EST
Civil Twilight 6:33 AM EST 5:24 PM EST
Nautical Twilight 5:59 AM EST 5:59 PM EST
Astronomical Twilight 5:25 AM EST 6:33 PM EST
Moon 6:26 AM EST (1/30) 5:04 PM EST (1/30)
Length of Visible Light 10h 51m
Length of Day
9h 50m
Waning Crescent, 0% of the Moon is Illuminated
Jan 30
Waning Crescent
Jan 30
New
Feb 6
First Quarter
Feb 14
Full
Feb 22
Last Quarter

Hourly Weather History & Observations

Time (EST) Temp. Windchill Dew Point Humidity Pressure Visibility Wind Dir Wind Speed Gust Speed Precip Events Conditions
12:15 AM 10.4 °F -4.1 °F -4.0 °F 52% 30.14 in 10.0 mi WSW 11.5 mph - N/A   Clear
12:35 AM 10.4 °F -6.0 °F -2.2 °F 57% 30.14 in 10.0 mi WSW 15.0 mph - N/A   Clear
12:55 AM 10.4 °F -3.3 °F -2.2 °F 57% 30.14 in 10.0 mi WSW 10.4 mph - N/A   Clear
1:15 AM 12.2 °F -0.2 °F -2.2 °F 53% 30.15 in 10.0 mi WSW 9.2 mph - N/A   Clear
1:35 AM 10.4 °F -3.3 °F -2.2 °F 57% 30.16 in 10.0 mi SW 10.4 mph - N/A   Clear
1:55 AM 10.4 °F -2.4 °F -2.2 °F 57% 30.16 in 10.0 mi WSW 9.2 mph - N/A   Clear
2:15 AM 10.4 °F -3.3 °F -2.2 °F 57% 30.16 in 10.0 mi WSW 10.4 mph - N/A   Clear
2:35 AM 10.4 °F -0.4 °F -2.2 °F 57% 30.17 in 10.0 mi WSW 6.9 mph - N/A   Clear
2:55 AM 8.6 °F -2.6 °F -2.2 °F 62% 30.18 in 10.0 mi SW 6.9 mph - N/A   Clear
3:15 AM 8.6 °F 0.1 °F -2.2 °F 62% 30.19 in 10.0 mi SW 4.6 mph - N/A   Clear
3:35 AM 8.6 °F 2.0 °F -2.2 °F 62% 30.20 in 10.0 mi SSW 3.5 mph - N/A   Clear
3:55 AM 8.6 °F 2.0 °F -4.0 °F 57% 30.22 in 10.0 mi WSW 3.5 mph - N/A   Clear
4:15 AM 8.6 °F -2.6 °F -2.2 °F 62% 30.22 in 10.0 mi WSW 6.9 mph - N/A   Clear
4:35 AM 8.6 °F -1.3 °F -2.2 °F 62% 30.23 in 10.0 mi WSW 5.8 mph - N/A   Clear
4:55 AM 8.6 °F -1.3 °F -2.2 °F 62% 30.23 in 10.0 mi WSW 5.8 mph - N/A   Clear
5:15 AM 8.6 °F -2.6 °F -2.2 °F 62% 30.23 in 10.0 mi SW 6.9 mph - N/A   Clear
5:35 AM 8.6 °F -2.6 °F -2.2 °F 62% 30.24 in 10.0 mi SSW 6.9 mph - N/A   Clear
5:55 AM 8.6 °F -1.3 °F -2.2 °F 62% 30.25 in 10.0 mi SW 5.8 mph - N/A   Clear
6:15 AM 8.6 °F -1.3 °F -0.4 °F 67% 30.25 in 10.0 mi WSW 5.8 mph - N/A   Clear
6:35 AM 8.6 °F -3.7 °F -0.4 °F 67% 30.28 in 10.0 mi WSW 8.1 mph - N/A   Clear
6:55 AM 8.6 °F -3.7 °F -0.4 °F 67% 30.28 in 10.0 mi WSW 8.1 mph - N/A   Clear
7:15 AM 8.6 °F -2.6 °F -0.4 °F 67% 30.30 in 10.0 mi WSW 6.9 mph - N/A   Clear
7:35 AM 8.6 °F -2.6 °F -0.4 °F 67% 30.31 in 10.0 mi WSW 6.9 mph - N/A   Clear
7:55 AM 10.4 °F -2.4 °F -0.4 °F 62% 30.32 in 10.0 mi WSW 9.2 mph - N/A   Clear
8:15 AM 10.4 °F -2.4 °F -0.4 °F 62% 30.33 in 10.0 mi WSW 9.2 mph - N/A   Clear
8:35 AM 12.2 °F -1.0 °F -0.4 °F 57% 30.35 in 10.0 mi SW 10.4 mph - N/A   Clear
8:55 AM 12.2 °F 0.7 °F -0.4 °F 57% 30.35 in 10.0 mi SW 8.1 mph - N/A   Clear
9:15 AM 14.0 °F 5.1 °F 1.4 °F 57% 30.36 in 10.0 mi SSW 5.8 mph - N/A   Clear
9:35 AM 14.0 °F 3.9 °F 1.4 °F 57% 30.36 in 10.0 mi SW 6.9 mph - N/A   Clear
9:55 AM 15.8 °F 5.1 °F 1.4 °F 53% 30.36 in 10.0 mi SW 8.1 mph - N/A   Clear
10:15 AM 15.8 °F 7.2 °F 1.4 °F 53% 30.36 in 10.0 mi SW 5.8 mph - N/A   Clear
10:35 AM 17.6 °F 7.3 °F 1.4 °F 49% 30.36 in 10.0 mi SW 8.1 mph - N/A   Clear
10:55 AM 17.6 °F 7.3 °F 3.2 °F 53% 30.35 in 10.0 mi SSW 8.1 mph - N/A   Clear
11:15 AM 17.6 °F 9.3 °F 3.2 °F 53% 30.34 in 10.0 mi SW 5.8 mph - N/A   Clear
11:35 AM 19.4 °F 10.4 °F 3.2 °F 49% 30.33 in 10.0 mi SSW 6.9 mph - N/A   Clear
11:55 AM 19.4 °F 11.5 °F 3.2 °F 49% 30.32 in 10.0 mi SW 5.8 mph - N/A   Clear
12:15 PM 19.4 °F 8.6 °F 3.2 °F 49% 30.31 in 10.0 mi SW 9.2 mph - N/A   Clear
12:35 PM 21.2 °F 12.6 °F 3.2 °F 46% 30.30 in 10.0 mi WSW 6.9 mph - N/A   Clear
12:55 PM 21.2 °F 13.6 °F 3.2 °F 46% 30.30 in 10.0 mi West 5.8 mph - N/A   Clear
1:15 PM 21.2 °F 16.4 °F 3.2 °F 46% 30.29 in 10.0 mi WSW 3.5 mph - N/A   Clear
1:35 PM 23.0 °F 12.4 °F 3.2 °F 43% 30.28 in 10.0 mi SSW 10.4 mph - N/A   Clear
1:55 PM 24.8 °F 16.1 °F 3.2 °F 40% 30.28 in 10.0 mi South 8.1 mph - N/A   Clear
2:15 PM 24.8 °F 16.1 °F 3.2 °F 40% 30.27 in 10.0 mi SW 8.1 mph - N/A   Clear
2:35 PM 24.8 °F 15.3 °F 3.2 °F 40% 30.27 in 10.0 mi SW 9.2 mph 16.1 mph N/A   Clear
2:55 PM 24.8 °F 15.3 °F 5.0 °F 43% 30.27 in 10.0 mi SW 9.2 mph - N/A   Clear
3:15 PM 24.8 °F 16.9 °F 5.0 °F 43% 30.26 in 10.0 mi SSW 6.9 mph - N/A   Clear
3:35 PM 24.8 °F 16.9 °F 3.2 °F 40% 30.26 in 10.0 mi SSW 6.9 mph - N/A   Clear
3:55 PM 26.6 °F 17.5 °F 5.0 °F 40% 30.26 in 10.0 mi SW 9.2 mph - N/A   Clear
4:15 PM 26.6 °F 19.1 °F 3.2 °F 37% 30.26 in 10.0 mi SW 6.9 mph - N/A   Clear
4:35 PM 26.6 °F 17.5 °F 3.2 °F 37% 30.25 in 10.0 mi SW 9.2 mph - N/A   Clear
4:55 PM 24.8 °F - 3.2 °F 40% 30.23 in 10.0 mi Calm Calm - N/A   Clear
5:15 PM 21.2 °F - 3.2 °F 46% 30.22 in 10.0 mi Calm Calm - N/A   Clear
5:35 PM 19.4 °F - 3.2 °F 49% 30.22 in 10.0 mi Calm Calm - N/A   Clear
5:55 PM 17.6 °F - 3.2 °F 53% 30.22 in 10.0 mi Calm Calm - N/A   Clear
6:15 PM 15.8 °F - 3.2 °F 58% 30.23 in 10.0 mi Calm Calm - N/A   Clear
6:35 PM 15.8 °F - 3.2 °F 58% 30.23 in 10.0 mi Calm Calm - N/A   Clear
6:55 PM 15.8 °F - 3.2 °F 58% 30.23 in 10.0 mi Calm Calm - N/A   Clear
7:15 PM 12.2 °F - 3.2 °F 67% 30.21 in 10.0 mi Calm Calm - N/A   Clear
7:35 PM 12.2 °F - 3.2 °F 67% 30.21 in 10.0 mi Calm Calm - N/A   Clear
7:55 PM 12.2 °F - 3.2 °F 67% 30.20 in 10.0 mi Calm Calm - N/A   Clear
8:15 PM 8.6 °F - 1.4 °F 73% 30.19 in 10.0 mi Calm Calm - N/A   Clear
8:35 PM 8.6 °F - 3.2 °F 79% 30.19 in 10.0 mi Calm Calm - N/A   Clear
8:55 PM 8.6 °F - 3.2 °F 79% 30.17 in 10.0 mi Calm Calm - N/A   Clear
9:15 PM 8.6 °F - 3.2 °F 79% 30.18 in 10.0 mi Calm Calm - N/A   Clear
9:35 PM 8.6 °F - 1.4 °F 73% 30.16 in 10.0 mi Calm Calm - N/A   Clear
9:55 PM 8.6 °F - 1.4 °F 73% 30.16 in 10.0 mi Calm Calm - N/A   Clear
10:15 PM 8.6 °F - 3.2 °F 79% 30.15 in 10.0 mi Calm Calm - N/A   Clear
10:35 PM 8.6 °F - 3.2 °F 79% 30.14 in 10.0 mi Calm Calm - N/A   Clear
10:55 PM 8.6 °F - 3.2 °F 79% 30.15 in 10.0 mi Calm Calm - N/A   Clear
11:15 PM 8.6 °F - 3.2 °F 79% 30.12 in 10.0 mi Calm Calm - N/A   Clear
11:35 PM 12.2 °F - 6.8 °F 79% 30.10 in 10.0 mi Calm Calm - N/A   Clear
11:55 PM 17.6 °F 8.2 °F 6.8 °F 63% 30.09 in 10.0 mi South 6.9 mph - N/A   Clear